DW1774 Weather Reports


Display with metric or nautical units.
time (UTC)temp
F
wind
direction
speed
MPH
gust
MPH
rain 1hr
in
rain 24hr
in
rain mn
in
humidity
%
barometer
mb
20260502183405 76 3 8.0 14.0 0.00 2.43 0.00 43 1019.6
20260502182404 77 33 7.0 14.0 0.00 2.43 0.00 44 1019.7
20260502180905 77 30 6.0 15.0 0.00 2.44 0.00 45 1019.9
20260502180404 77 22 6.0 15.0 0.00 2.44 0.00 47 1020.1
20260502170405 74 33 6.0 18.0 0.00 2.71 0.00 54 1020.1
20260502163905 73 42 7.0 16.0 0.00 3.21 0.00 55 1020.1
20260502163403 73 19 5.0 14.0 0.00 3.21 0.00 58 1020.1
20260502162404 72 27 7.0 16.0 0.00 3.21 0.00 58 1020.1
20260502161904 72 36 5.0 12.0 0.00 3.21 0.00 61 1020.1
20260502161405 71 30 5.0 12.0 0.00 3.21 0.00 62 1020.0
20260502160904 71 12 8.0 15.0 0.00 3.21 0.00 61 1020.0
20260502160404 70 41 7.0 15.0 0.00 3.21 0.00 62 1019.9
20260502151905 68 62 6.0 13.0 0.00 3.21 0.00 72 1020.0
20260502151404 67 11 5.0 13.0 0.00 3.21 0.00 73 1020.0
20260502150903 66 18 6.0 13.0 0.00 3.21 0.00 73 1020.1
20260502150404 66 57 5.0 12.0 0.00 3.21 0.00 75 1020.1
20260502130403 57 41 5.0 12.0 0.00 3.27 0.00 89 1018.8
20260502123404 55 25 4.0 12.0 0.00 3.30 0.00 89 1018.2
20260502122903 55 10 3.0 12.0 0.00 3.33 0.00 89 1018.2
20260502121903 54 14 3.0 9.0 0.00 3.48 0.00 89 1018.1
20260502121404 54 25 4.0 9.0 0.00 3.50 0.00 89 1018.0
20260502120903 54 357 4.0 8.0 0.00 3.52 0.00 89 1018.0
20260502115903 54 4 3.0 9.0 0.00 3.56 0.00 89 1018.0
20260502115405 54 0 3.0 10.0 0.00 3.59 0.00 89 1017.9
20260502114903 54 5 5.0 10.0 0.00 3.59 0.00 89 1017.8
20260502113904 54 2 6.0 10.0 0.00 3.59 0.00 89 1017.6
20260502113404 54 16 4.0 12.0 0.00 3.59 0.00 89 1017.6
20260502112903 54 0 4.0 12.0 0.00 3.59 0.00 89 1017.6
20260501235904 60 50 4.0 15.0 0.05 3.59 3.21 92 1010.5
20260501235405 60 41 5.0 16.0 0.06 3.59 3.21 92 1010.4
20260501234904 60 11 10.0 16.0 0.05 3.58 3.20 92 1010.4
20260501234404 60 4 10.0 16.0 0.05 3.58 3.20 92 1010.6
20260501233904 61 14 7.0 16.0 0.05 3.58 3.20 92 1010.6
20260501233404 60 357 5.0 15.0 0.05 3.58 3.20 92 1010.1
20260501232904 61 9 6.0 15.0 0.05 3.57 3.19 92 1009.9
20260501232404 61 37 6.0 13.0 0.05 3.57 3.19 92 1009.7
20260501231404 61 34 6.0 15.0 0.05 3.56 3.18 92 1009.5
20260501230405 61 28 5.0 10.0 0.05 3.54 3.16 92 1010.0
20260501225904 61 6 4.0 10.0 0.06 3.54 3.16 92 1010.3
20260501225404 61 71 5.0 10.0 0.05 3.53 3.15 92 1010.3
20260501224404 61 32 5.0 12.0 0.06 3.53 3.15 92 1010.3
20260501223904 62 55 5.0 12.0 0.07 3.53 3.15 92 1010.0
20260501223404 62 64 5.0 13.0 0.09 3.53 3.15 92 1009.8
20260501222905 62 74 7.0 13.0 0.10 3.52 3.14 92 1009.9
20260501222404 62 62 6.0 14.0 0.11 3.52 3.14 92 1010.0
20260501221903 62 73 6.0 14.0 0.14 3.51 3.13 92 1010.5
20260501221405 62 15 4.0 12.0 0.15 3.51 3.13 92 1010.9
20260501220404 62 33 4.0 10.0 0.21 3.49 3.11 92 1010.8
20260501215904 62 9 3.0 8.0 0.26 3.48 3.10 92 1011.1
20260501214904 62 61 4.0 10.0 0.31 3.47 3.09 92 1010.5
20260501214405 62 37 3.0 12.0 0.38 3.47 3.09 92 1010.2
20260501213904 62 68 5.0 12.0 0.38 3.46 3.08 92 1009.8
20260501213404 62 51 5.0 12.0 0.37 3.44 3.06 92 1009.3
20260501212405 62 87 5.0 10.0 0.39 3.41 3.03 92 1009.8
20260501211904 62 52 4.0 12.0 0.47 3.37 2.99 92 1009.7
20260501210904 63 32 4.0 12.0 0.61 3.34 2.96 92 1009.8
20260501210404 63 51 6.0 12.0 0.58 3.28 2.90 92 1010.0
20260501205905 63 17 1.0 12.0 0.55 3.22 2.84 92 1010.2
20260501205404 63 40 3.0 12.0 0.57 3.20 2.82 92 1010.1
20260501204905 63 29 5.0 12.0 0.63 3.16 2.78 92 1010.0
20260501203404 63 51 6.0 16.0 0.90 3.07 2.69 92 1009.0
20260501202903 63 55 6.0 16.0 0.91 3.07 2.69 92 1008.9
20260501202404 63 78 6.0 14.0 0.86 3.02 2.64 92 1008.7
20260501201905 63 52 6.0 14.0 0.75 2.90 2.52 92 1008.3
20260501201404 63 30 4.0 10.0 0.68 2.80 2.42 92 1009.2
20260501200904 63 15 3.0 7.0 0.63 2.73 2.35 92 1009.0
20260501200404 63 34 2.0 8.0 0.61 2.70 2.32 92 1009.1
20260501195904 63 57 2.0 8.0 0.58 2.67 2.29 92 1009.4
20260501195404 63 105 1.0 10.0 0.56 2.63 2.25 92 1009.1
20260501194905 63 80 5.0 10.0 0.48 2.53 2.15 92 1008.5
20260501194404 63 103 5.0 9.0 0.28 2.33 1.95 92 1008.5
20260501193905 63 35 2.0 12.0 0.18 2.23 1.85 92 1009.1
20260501193404 63 21 5.0 15.0 0.13 2.17 1.79 92 1008.6
20260501192904 63 70 6.0 15.0 0.12 2.16 1.78 92 1008.0
20260501192404 63 74 7.0 20.0 0.12 2.16 1.78 92 1007.8
20260501191405 63 72 6.0 16.0 0.08 2.12 1.74 92 1009.4
20260501190904 63 354 3.0 12.0 0.06 2.10 1.72 92 1010.9
20260501190404 63 299 1.0 15.0 0.05 2.09 1.71 92 1010.5
20260501185904 63 9 4.0 16.0 0.05 2.09 1.71 92 1008.8
20260501185404 64 69 10.0 16.0 0.03 2.07 1.69 92 1008.5
20260501184905 64 23 3.0 6.0 0.01 2.05 1.67 92 1009.7
20260501184404 64 274 1.0 14.0 0.01 2.05 1.67 92 1010.2